Victoria, British Columbia

8:26 AM PST on February 23, 2017 (GMT -0800)
Victoria International

Weather History for CYYJ - August, 2013

Change the Weather History Date:

Wednesday, August 21, 2013

  Actual Average Record
Temperature  
Mean Temperature 63 °F -  
Max Temperature 78 °F 68 °F 78 °F (2013)
Min Temperature 48 °F 48 °F 48 °F (1996)
Degree Days  
Heating Degree Days 2    
Growing Degree Days 13 (Base 50)    
Moisture  
Dew Point 50 °F    
Average Humidity 64    
Maximum Humidity 94    
Minimum Humidity 32    
Precipitation  
Precipitation 0.00 in 0.04 in - ()
Sea Level Pressure  
Sea Level Pressure 30.06 in    
Wind  
Wind Speed 5 mph ()    
Max Wind Speed 12 mph    
Max Gust Speed -    
Averages and records for this station are not official NWS values.
T = Trace of Precipitation, MM = Missing Value Source: Averaged Metar Reports

Daily Weather History Graph

Daily Weather History Graph

Search for Another Location

Airport or City:

Trip Planner

Search our weather history database for the weather conditions in past years. The results will help you decide how hot, cold, wet, or windy it might be!

Date:

Astronomy

Aug. 21, 2013 Rise Set
Actual Time 6:15 AM PDT 8:16 PM PDT
Civil Twilight 5:41 AM PDT 8:50 PM PDT
Nautical Twilight 4:59 AM PDT 9:32 PM PDT
Astronomical Twilight 4:12 AM PDT 10:18 PM PDT
Moon 8:16 PM PDT (8/21) 7:11 AM PDT (8/21)
Length of Visible Light 15h 08m
Length of Day
14h 00m
Full, 99% of the Moon is Illuminated
Aug 21
Full
Aug 28
Last Quarter
Sep 5
New
Sep 12
First Quarter
Sep 19
Full

Hourly Weather History & Observations

Time (PDT) Temp. Dew Point Humidity Pressure Visibility Wind Dir Wind Speed Gust Speed Precip Events Conditions
12:00 AM 57.2 °F 50.0 °F 77% 30.11 in 30.0 mi WSW 5.8 mph - N/A   Clear
1:00 AM 55.4 °F 48.2 °F 77% 30.12 in 30.0 mi South 4.6 mph - N/A   Partly Cloudy
2:00 AM 55.4 °F 50.0 °F 82% 30.12 in 30.0 mi WSW 4.6 mph - N/A   Partly Cloudy
3:00 AM 53.6 °F 48.2 °F 82% 30.12 in 30.0 mi WSW 6.9 mph - N/A   Partly Cloudy
4:00 AM 51.8 °F 48.2 °F 88% 30.11 in 30.0 mi WSW 5.8 mph - N/A   Partly Cloudy
5:00 AM 50 °F 48 °F 91% 30.11 in 28 mi WSW 5.8 mph - -   Clear
5:00 AM 50.0 °F 48.2 °F 94% 30.11 in 30.0 mi WSW 5.8 mph - N/A   Partly Cloudy
6:00 AM 53.6 °F 48.2 °F 82% 30.11 in 30.0 mi West 6.9 mph - N/A   Partly Cloudy
7:00 AM 51.8 °F 48.2 °F 88% 30.12 in 30.0 mi West 3.5 mph - N/A   Partly Cloudy
8:00 AM 57.2 °F 50.0 °F 77% 30.12 in 30.0 mi WNW 4.6 mph - N/A   Scattered Clouds
9:00 AM 62.6 °F 50.0 °F 63% 30.12 in 30.0 mi WNW 4.6 mph - N/A   Scattered Clouds
10:00 AM 66.2 °F 48.2 °F 52% 30.11 in 30.0 mi WSW 3.5 mph - N/A   Partly Cloudy
11:00 AM 71 °F 51 °F 38% 30.10 in 28 mi ENE 4.6 mph - -   Clear
11:00 AM 69.8 °F 50.0 °F 49% 30.10 in 30.0 mi East 6.9 mph - N/A   Partly Cloudy
12:00 PM 71.6 °F 53.6 °F 53% 30.10 in 30.0 mi East 11.5 mph - N/A   Partly Cloudy
1:00 PM 73.4 °F 53.6 °F 50% 30.08 in 30.0 mi ENE 6.9 mph - N/A   Partly Cloudy
2:00 PM 75.2 °F 51.8 °F 44% 30.06 in 30.0 mi NNE 5.8 mph - N/A   Partly Cloudy
3:00 PM 77.0 °F 51.8 °F 41% 30.04 in 30.0 mi NNE 6.9 mph - N/A   Partly Cloudy
4:00 PM 75.2 °F 53.6 °F 47% 30.02 in 30.0 mi ENE 9.2 mph - N/A   Partly Cloudy
5:00 PM 76 °F 52 °F 32% 30.00 in 28 mi East 8.1 mph - -   Clear
5:00 PM 75.2 °F 51.8 °F 44% 30.00 in 30.0 mi ENE 8.1 mph - N/A   Partly Cloudy
6:00 PM 75.2 °F 50.0 °F 41% 29.99 in 30.0 mi East 4.6 mph - N/A   Partly Cloudy
7:00 PM 73.4 °F 51.8 °F 47% 29.97 in 30.0 mi ESE 4.6 mph - N/A   Partly Cloudy
8:00 PM 68.0 °F 51.8 °F 56% 29.96 in 30.0 mi East 2.3 mph - N/A   Partly Cloudy
9:00 PM 62.6 °F 51.8 °F 68% 29.97 in 30.0 mi Variable 2.3 mph - N/A   Partly Cloudy
10:00 PM 59.0 °F 50.0 °F 72% 29.97 in 30.0 mi Calm Calm - N/A   Partly Cloudy
11:00 PM 56 °F 48 °F 67% 29.97 in 28 mi NW 1.2 mph - -   Clear
11:00 PM 55.4 °F 48.2 °F 77% 29.97 in 30.0 mi Variable 2.3 mph - N/A   Partly Cloudy